Temp
-11 -11 -12 -12 -12 -12 -12 -12 -12 -13 -13 -14 -15 -15 -15 -16 -17 -18 -19 -19 -19 -20 -20 -20 -20 -20 -20 -21 -21 -20 -20 -19 -19 -18 -18 -18 -17 -15 -14 -14 -13 -13 -12 -12 -11 -11 -11
-11 -11 -12 -12 -12 -12 -12 -12 -13 -13 -13 -14 -15 -15 -16 -17 -18 -19 -19 -19 -19 -20 -20 -19 -19 -20 -20 -20 -20 -20 -20 -21 -20 -18 -18 -19 -18 -16 -15 -14 -14 -13 -13 -12 -11 -11 -10
-11 -11 -12 -12 -12 -12 -12 -13 -13 -13 -13 -14 -15 -15 -16 -17 -18 -19 -19 -19 -19 -19 -19 -20 -19 -20 -20 -20 -20 -20 -20 -19 -18 -19 -19 -18 -18 -16 -15 -15 -14 -14 -13 -12 -11 -11 -11
-12 -12 -12 -12 -12 -12 -13 -13 -13 -13 -13 -14 -15 -15 -16 -16 -18 -18 -18 -19 -19 -19 -20 -20 -19 -19 -19 -20 -20 -20 -20 -19 -19 -19 -19 -18 -18 -16 -15 -15 -14 -14 -13 -12 -11 -11 -11
-12 -12 -12 -13 -12 -13 -13 -13 -13 -13 -13 -14 -15 -15 -16 -16 -17 -18 -18 -19 -19 -19 -19 -20 -20 -19 -19 -20 -20 -20 -20 -20 -19 -19 -19 -18 -17 -16 -15 -15 -15 -14 -13 -12 -12 -11 -11
-12 -12 -12 -13 -13 -13 -13 -13 -13 -13 -13 -13 -14 -15 -15 -16 -17 -17 -18 -18 -19 -19 -20 -20 -20 -20 -19 -20 -20 -20 -19 -19 -19 -19 -18 -18 -17 -16 -15 -15 -14 -14 -13 -13 -12 -12 -12
-12 -12 -12 -13 -13 -13 -13 -13 -13 -13 -13 -13 -14 -15 -15 -16 -17 -17 -18 -19 -19 -19 -19 -19 -20 -19 -19 -19 -20 -19 -20 -19 -19 -18 -18 -18 -17 -16 -15 -15 -15 -14 -14 -14 -13 -13 -13
-12 -12 -13 -13 -13 -13 -13 -13 -14 -13 -13 -13 -14 -15 -15 -15 -16 -18 -19 -19 -18 -18 -18 -19 -20 -20 -20 -20 -20 -20 -19 -19 -19 -18 -18 -18 -17 -16 -16 -15 -15 -15 -14 -14 -14 -13 -13
-12 -12 -13 -13 -13 -13 -13 -14 -14 -14 -13 -13 -13 -14 -15 -15 -16 -17 -18 -18 -18 -19 -18 -19 -19 -19 -19 -19 -19 -18 -19 -19 -19 -19 -18 -17 -16 -16 -16 -15 -15 -15 -14 -14 -14 -14 -14
-12 -13 -13 -13 -13 -13 -13 -14 -14 -14 -13 -13 -13 -14 -15 -15 -15 -16 -17 -17 -18 -18 -19 -19 -19 -19 -19 -19 -19 -19 -19 -19 -19 -18 -17 -17 -16 -16 -16 -15 -15 -15 -14 -14 -14 -14 -13
-13 -13 -13 -13 -13 -13 -13 -14 -14 -14 -14 -14 -13 -13 -14 -15 -15 -16 -16 -16 -17 -18 -18 -18 -19 -19 -19 -18 -19 -18 -19 -19 -18 -17 -16 -16 -16 -16 -15 -15 -15 -14 -14 -14 -14 -13 -13
-13 -13 -13 -13 -13 -13 -14 -14 -14 -14 -14 -14 -13 -13 -14 -14 -15 -15 -16 -16 -17 -17 -17 -18 -18 -19 -19 -19 -18 -18 -18 -17 -17 -16 -16 -15 -15 -15 -15 -15 -14 -14 -14 -14 -13 -13 -13
-13 -13 -13 -13 -13 -13 -13 -14 -14 -14 -14 -14 -14 -14 -13 -14 -14 -15 -15 -16 -16 -16 -17 -17 -17 -18 -19 -18 -18 -17 -17 -16 -16 -15 -15 -15 -14 -14 -14 -14 -14 -14 -13 -13 -13 -13 -12
-13 -13 -13 -13 -13 -13 -13 -13 -13 -13 -13 -13 -13 -13 -14 -14 -14 -14 -15 -15 -15 -16 -16 -16 -16 -16 -17 -18 -17 -17 -16 -15 -15 -15 -14 -14 -14 -14 -14 -13 -13 -13 -13 -12 -12 -12 -12
-13 -13 -13 -13 -13 -13 -13 -13 -13 -13 -13 -13 -13 -13 -13 -14 -14 -14 -15 -15 -15 -15 -16 -16 -16 -16 -16 -16 -17 -17 -17 -16 -15 -14 -14 -14 -14 -13 -13 -13 -13 -12 -12 -12 -12 -11 -11
-13 -13 -13 -13 -13 -13 -13 -13 -14 -13 -13 -13 -13 -13 -13 -13 -14 -14 -14 -14 -14 -15 -15 -15 -15 -15 -15 -15 -15 -15 -16 -16 -16 -15 -14 -14 -13 -13 -13 -12 -12 -12 -12 -12 -12 -12 -11
-14 -14 -13 -13 -13 -13 -13 -13 -13 -13 -13 -13 -13 -13 -13 -13 -13 -13 -14 -14 -14 -14 -15 -15 -15 -15 -15 -15 -15 -15 -15 -15 -15 -15 -15 -15 -14 -14 -13 -13 -13 -13 -12 -12 -13 -12 -12
-14 -14 -14 -14 -13 -13 -13 -14 -13 -13 -13 -13 -12 -13 -13 -13 -13 -13 -13 -14 -14 -14 -14 -14 -14 -14 -15 -15 -14 -14 -14 -14 -14 -14 -14 -14 -14 -14 -14 -14 -14 -14 -14 -14 -14 -13 -13
-14 -14 -14 -14 -14 -14 -13 -14 -13 -13 -13 -13 -12 -12 -13 -13 -13 -13 -13 -13 -14 -14 -14 -14 -14 -14 -14 -14 -14 -14 -14 -14 -14 -14 -14 -13 -13 -13 -13 -13 -13 -13 -13 -13 -13 -13 -13
-14 -14 -14 -14 -14 -14 -14 -14 -13 -13 -13 -13 -13 -13 -13 -13 -13 -13 -13 -13 -13 -14 -14 -14 -14 -14 -14 -14 -14 -14 -14 -14 -14 -14 -13 -13 -13 -13 -13 -13 -13 -13 -13 -13 -13 -13 -13
-15 -14 -14 -14 -14 -14 -13 -14 -13 -13 -13 -13 -13 -13 -13 -13 -12 -13 -13 -13 -13 -13 -13 -13 -14 -14 -13 -14 -14 -14 -14 -14 -14 -14 -14 -14 -14 -14 -13 -13 -13 -13 -13 -13 -13 -13 -13
-14 -14 -14 -14 -14 -14 -14 -14 -13 -14 -13 -13 -13 -13 -13 -13 -13 -13 -13 -13 -13 -13 -13 -13 -14 -14 -14 -13 -13 -14 -14 -14 -14 -14 -14 -14 -14 -14 -14 -14 -13 -13 -14 -14 -13 -13 -13
-14 -14 -14 -14 -14 -14 -14 -14 -14 -14 -13 -13 -13 -13 -13 -13 -13 -13 -13 -12 -12 -12 -13 -13 -13 -13 -13 -14 -14 -14 -13 -14 -14 -14 -13 -13 -13 -13 -13 -14 -14 -14 -14 -14 -14 -14 -14
-14 -14 -14 -13 -14 -14 -13 -13 -13 -13 -13 -13 -12 -12 -13 -13 -12 -13 -13 -13 -13 -13 -13 -13 -13 -13 -13 -13 -13 -14 -14 -14 -14 -14 -13 -13 -13 -12 -12 -13 -12 -13 -13 -14 -14 -14 -14
-14 -14 -14 -14 -14 -13 -13 -13 -13 -13 -13 -13 -13 -13 -13 -13 -13 -13 -12 -12 -13 -13 -13 -13 -13 -13 -13 -13 -13 -13 -14 -14 -14 -15 -15 -15 -15 -14 -13 -14 -12 -13 -14 -13 -13 -13 -14
-14 -14 -13 -14 -14 -14 -13 -13 -14 -14 -13 -13 -13 -13 -13 -13 -13 -13 -13 -13 -13 -13 -13 -14 -14 -14 -13 -13 -13 -13 -13 -13 -13 -13 -14 -15 -15 -15 -15 -14 -11 -13 -16 -15 -15 -14 -15
-14 -13 -14 -13 -14 -14 -14 -14 -14 -14 -14 -14 -14 -14 -14 -14 -14 -14 -14 -14 -14 -14 -14 -14 -14 -15 -15 -14 -14 -13 -13 -13 -12 -13 -13 -14 -14 -14 -15 -14 -12 -14 -15 -15 -15 -15 -16
-14 -14 -14 -14 -14 -14 -14 -14 -14 -14 -14 -14 -14 -14 -14 -14 -15 -15 -15 -15 -15 -15 -15 -15 -15 -15 -15 -15 -15 -14 -14 -14 -13 -13 -13 -14 -14 -14 -14 -14 -13 -14 -15 -15 -16 -16 -17
-14 -15 -14 -15 -14 -15 -15 -15 -15 -15 -15 -15 -15 -15 -15 -15 -15 -15 -16 -16 -16 -16 -15 -15 -16 -16 -15 -15 -15 -15 -14 -14 -14 -14 -14 -14 -14 -15 -15 -15 -15 -16 -16 -15 -16 -17 -17
Height
5805 5800 5792 5783 5775 5765 5756 5749 5741 5732 5721 5711 5701 5691 5681 5670 5659 5646 5634 5626 5621 5620 5619 5620 5621 5623 5624 5627 5630 5635 5639 5644 5650 5658 5666 5676 5690 5708 5725 5739 5751 5764 5774 5784 5793 5802 5809
5806 5799 5792 5784 5776 5766 5757 5750 5742 5733 5723 5713 5703 5693 5683 5672 5660 5649 5639 5631 5624 5621 5621 5621 5623 5625 5627 5630 5633 5639 5643 5647 5652 5657 5665 5675 5687 5705 5722 5738 5750 5762 5773 5782 5791 5799 5805
5806 5799 5792 5785 5776 5767 5759 5750 5743 5735 5725 5716 5705 5695 5685 5674 5664 5653 5645 5636 5629 5625 5623 5622 5624 5627 5630 5635 5637 5641 5645 5648 5654 5659 5667 5678 5688 5703 5722 5736 5748 5760 5771 5779 5788 5796 5802
5807 5800 5793 5785 5777 5769 5761 5752 5745 5736 5728 5718 5709 5698 5689 5678 5669 5658 5649 5641 5634 5631 5629 5627 5626 5630 5634 5637 5641 5646 5651 5653 5654 5663 5674 5682 5690 5705 5723 5736 5748 5759 5769 5777 5785 5792 5799
5809 5802 5793 5786 5778 5771 5762 5754 5745 5738 5731 5722 5713 5703 5692 5683 5675 5664 5655 5647 5641 5636 5634 5634 5633 5635 5638 5641 5645 5649 5654 5658 5663 5669 5680 5687 5695 5711 5726 5739 5749 5759 5769 5777 5784 5790 5797
5810 5802 5795 5788 5781 5773 5765 5756 5748 5741 5734 5725 5717 5708 5698 5689 5682 5672 5664 5657 5652 5646 5643 5641 5639 5641 5644 5648 5649 5656 5658 5664 5669 5678 5685 5693 5703 5716 5729 5741 5752 5761 5769 5777 5784 5790 5796
5810 5804 5797 5790 5782 5775 5768 5759 5751 5743 5737 5730 5721 5713 5704 5696 5687 5680 5672 5666 5662 5658 5654 5651 5649 5649 5652 5656 5659 5660 5663 5669 5678 5685 5691 5700 5710 5722 5734 5744 5753 5763 5770 5777 5784 5789 5795
5810 5805 5798 5792 5784 5776 5770 5763 5754 5747 5740 5734 5726 5718 5710 5702 5694 5687 5679 5676 5672 5667 5663 5659 5658 5660 5662 5666 5668 5667 5670 5677 5685 5692 5698 5707 5716 5728 5738 5747 5756 5764 5771 5778 5783 5789 5794
5810 5806 5799 5793 5786 5779 5772 5765 5759 5751 5744 5738 5731 5723 5715 5709 5702 5695 5690 5685 5680 5675 5672 5670 5668 5668 5670 5673 5673 5674 5679 5684 5692 5698 5704 5713 5724 5732 5741 5750 5759 5767 5773 5778 5784 5788 5794
5809 5806 5800 5795 5788 5781 5775 5768 5762 5755 5748 5741 5736 5729 5721 5714 5710 5703 5698 5694 5689 5685 5681 5681 5680 5678 5678 5680 5682 5683 5688 5694 5703 5709 5712 5720 5730 5738 5746 5754 5762 5769 5774 5780 5784 5789 5794
5808 5804 5800 5796 5790 5783 5777 5771 5765 5759 5752 5746 5740 5734 5727 5720 5715 5710 5706 5701 5698 5696 5692 5691 5688 5688 5688 5689 5692 5695 5700 5704 5711 5716 5722 5729 5738 5745 5752 5759 5765 5771 5776 5781 5785 5789 5793
5807 5803 5799 5795 5790 5784 5779 5773 5767 5762 5756 5750 5744 5739 5733 5727 5722 5717 5712 5709 5707 5706 5701 5700 5700 5698 5700 5700 5701 5706 5710 5716 5719 5724 5729 5736 5744 5751 5757 5762 5768 5773 5778 5782 5786 5789 5792
5806 5802 5799 5795 5790 5785 5780 5775 5770 5765 5760 5755 5750 5744 5739 5733 5729 5723 5719 5717 5716 5712 5710 5710 5709 5708 5708 5711 5713 5715 5720 5724 5729 5733 5737 5743 5751 5756 5761 5766 5770 5775 5779 5782 5786 5788 5791
5804 5801 5798 5794 5790 5785 5781 5776 5772 5768 5763 5758 5754 5749 5745 5739 5735 5730 5726 5724 5722 5718 5717 5717 5717 5717 5718 5720 5722 5724 5727 5730 5734 5738 5743 5749 5756 5760 5763 5768 5771 5775 5778 5781 5783 5785 5788
5802 5800 5797 5794 5790 5786 5782 5778 5774 5770 5766 5762 5756 5752 5748 5744 5741 5738 5733 5732 5728 5725 5723 5724 5725 5725 5725 5728 5730 5731 5732 5734 5737 5741 5747 5751 5756 5760 5764 5767 5771 5773 5776 5778 5779 5780 5781
5799 5798 5796 5793 5789 5786 5783 5778 5775 5772 5769 5765 5761 5756 5752 5748 5745 5743 5740 5738 5734 5732 5732 5731 5730 5731 5731 5732 5734 5736 5738 5739 5740 5743 5747 5751 5755 5758 5761 5764 5767 5769 5771 5773 5772 5773 5774
5795 5794 5793 5791 5788 5785 5783 5779 5777 5773 5770 5768 5765 5761 5758 5754 5750 5748 5746 5744 5741 5738 5738 5738 5737 5736 5736 5737 5737 5738 5741 5743 5744 5746 5748 5751 5754 5758 5759 5761 5763 5765 5765 5766 5766 5766 5765
5790 5789 5789 5787 5786 5784 5781 5778 5776 5774 5771 5770 5767 5764 5761 5758 5756 5752 5750 5748 5745 5744 5743 5743 5743 5742 5742 5742 5742 5742 5743 5745 5746 5748 5749 5751 5754 5755 5757 5758 5759 5760 5761 5761 5760 5761 5760
5784 5784 5784 5783 5782 5780 5779 5777 5775 5774 5772 5771 5769 5766 5764 5761 5758 5757 5755 5752 5750 5748 5747 5746 5746 5746 5746 5746 5746 5746 5746 5747 5748 5749 5751 5752 5753 5752 5754 5756 5756 5755 5756 5755 5753 5752 5754
5776 5777 5777 5777 5777 5776 5774 5775 5774 5774 5771 5771 5769 5768 5765 5763 5760 5757 5755 5755 5754 5752 5750 5749 5749 5748 5748 5747 5747 5748 5748 5747 5747 5747 5748 5749 5749 5750 5750 5749 5749 5749 5748 5746 5744 5745 5745
5769 5768 5770 5770 5770 5769 5768 5769 5769 5769 5768 5768 5768 5766 5764 5762 5760 5759 5757 5755 5753 5751 5750 5750 5750 5749 5749 5750 5750 5748 5748 5747 5748 5747 5747 5747 5746 5745 5745 5744 5744 5743 5742 5741 5740 5739 5735
5761 5762 5762 5763 5762 5762 5763 5763 5762 5762 5763 5765 5765 5764 5763 5761 5759 5758 5757 5755 5754 5753 5753 5751 5750 5748 5746 5746 5746 5747 5747 5747 5747 5747 5745 5745 5745 5743 5742 5737 5735 5736 5738 5736 5734 5733 5729
5753 5754 5754 5756 5756 5756 5756 5758 5757 5757 5758 5758 5759 5760 5760 5758 5757 5756 5753 5752 5751 5750 5749 5748 5749 5748 5746 5744 5743 5742 5742 5741 5741 5740 5739 5740 5739 5738 5739 5736 5731 5735 5734 5729 5725 5724 5721
5745 5746 5747 5748 5749 5749 5749 5749 5751 5752 5752 5753 5752 5752 5753 5753 5752 5750 5750 5750 5749 5748 5746 5744 5743 5742 5742 5740 5738 5738 5736 5735 5734 5731 5731 5731 5729 5727 5727 5727 5725 5727 5725 5722 5718 5717 5712
5736 5738 5738 5740 5741 5742 5742 5744 5745 5744 5744 5746 5746 5745 5745 5746 5746 5745 5744 5743 5743 5743 5742 5740 5738 5738 5736 5735 5732 5730 5730 5728 5726 5724 5722 5720 5717 5713 5711 5713 5712 5712 5712 5711 5707 5707 5703
5725 5727 5728 5730 5732 5733 5736 5736 5737 5738 5739 5737 5737 5738 5736 5736 5738 5739 5739 5737 5735 5734 5734 5733 5732 5730 5728 5727 5725 5722 5721 5720 5716 5715 5716 5713 5711 5706 5702 5697 5694 5693 5697 5695 5692 5691 5691
5713 5716 5717 5718 5720 5722 5724 5726 5728 5727 5727 5729 5729 5729 5729 5727 5725 5725 5727 5727 5727 5725 5724 5723 5721 5720 5719 5716 5713 5711 5709 5708 5706 5705 5704 5701 5698 5695 5693 5688 5687 5689 5685 5682 5679 5680 5674
5698 5702 5704 5706 5707 5709 5710 5713 5714 5715 5716 5716 5717 5717 5717 5719 5718 5717 5714 5715 5714 5713 5713 5711 5710 5710 5706 5703 5701 5698 5695 5694 5692 5692 5690 5688 5686 5683 5677 5673 5674 5675 5670 5667 5663 5659 5655
5682 5685 5689 5691 5693 5695 5696 5698 5699 5701 5700 5701 5702 5701 5704 5704 5705 5704 5703 5701 5699 5699 5699 5697 5697 5694 5691 5691 5689 5685 5683 5680 5678 5676 5675 5672 5668 5666 5663 5660 5656 5653 5649 5645 5643 5640 5638
Wind_Speed
42 43 42 46 47 45 42 39 40 45 51 52 40 40 46 43 41 42 39 29 19 8 5 9 11 9 8 12 18 20 27 32 35 21 38 49 56 63 67 64 62 58 52 49 45 39 35
41 43 43 45 47 46 43 38 39 44 49 53 43 42 45 43 42 41 40 32 19 5 4 9 12 11 7 18 23 23 25 17 29 20 40 53 56 60 62 60 58 56 48 46 44 38 35
39 42 43 45 46 46 44 40 39 41 47 52 45 43 48 43 41 41 42 40 24 17 10 6 12 13 12 22 23 24 28 16 28 20 45 53 55 59 60 57 55 51 46 46 43 39 36
37 40 42 43 46 47 43 42 39 39 44 49 48 44 47 45 40 40 44 41 29 25 21 20 11 13 15 20 23 22 16 18 20 38 50 53 54 55 56 54 52 47 46 46 43 39 38
34 38 41 42 44 44 43 42 40 38 41 46 48 45 45 44 39 41 46 44 36 26 27 21 17 16 17 20 22 21 19 15 20 49 49 47 50 52 51 49 48 46 45 44 40 38 38
31 36 40 41 42 43 43 41 40 39 38 43 47 44 43 42 38 37 42 40 35 29 24 22 20 24 22 22 20 22 22 16 31 46 40 44 47 47 47 46 44 43 42 40 36 35 36
28 33 38 41 40 41 41 40 39 38 36 40 44 46 42 40 38 36 39 38 34 27 20 24 23 26 23 20 21 18 16 23 40 41 37 40 42 42 42 42 41 39 36 32 30 30 32
26 30 34 40 38 41 41 39 37 37 34 36 41 45 41 39 37 35 36 36 34 34 26 24 25 23 21 25 16 20 26 30 37 35 37 37 38 39 36 36 36 34 32 30 29 28 29
25 28 32 38 37 38 40 39 36 35 34 33 37 41 41 37 35 33 30 33 33 37 30 27 29 21 22 17 17 32 26 31 33 34 34 33 35 36 33 32 30 29 28 28 26 25 23
24 25 29 35 37 36 38 38 35 32 33 31 32 36 39 35 32 31 29 27 30 34 33 28 25 21 22 25 21 21 31 30 30 32 33 30 30 30 28 26 25 24 24 23 21 20 19
22 23 27 32 35 33 37 36 33 32 31 30 29 31 34 36 31 27 29 26 28 32 35 28 28 29 30 29 27 28 31 34 33 33 32 28 24 23 22 22 21 20 20 19 17 16 16
21 22 24 29 33 31 34 35 32 29 28 28 26 26 30 34 32 29 26 26 26 29 33 33 27 29 26 28 34 36 34 34 35 34 31 26 21 19 18 16 16 14 14 13 12 12 13
20 20 23 26 30 29 31 32 29 28 28 26 26 23 25 29 32 29 26 24 24 26 29 30 30 27 29 28 30 37 34 32 32 30 29 24 18 16 15 13 11 10 9 9 9 11 12
19 19 21 24 29 26 29 28 24 24 24 25 25 26 23 24 28 31 28 23 22 25 24 26 27 26 23 24 29 24 32 31 29 28 26 22 17 14 13 11 10 8 9 10 12 14 16
18 18 19 22 26 25 24 26 20 19 19 21 23 25 27 24 23 24 28 25 22 21 20 19 21 24 26 21 16 15 21 26 26 26 23 21 20 17 14 11 10 14 14 16 18 21 22
19 19 19 20 23 23 23 21 21 15 15 17 20 23 25 25 24 21 22 22 26 22 19 16 17 16 17 19 19 15 10 13 19 24 23 22 20 20 21 20 20 19 21 23 25 26 28
22 21 21 20 21 20 22 20 17 16 14 15 17 21 21 24 26 25 19 16 20 22 22 17 14 12 13 12 11 12 10 7 5 8 12 19 19 21 24 24 24 25 26 26 28 31 33
24 23 21 20 19 19 21 20 15 13 13 15 17 18 19 22 23 23 22 20 17 15 16 17 17 15 9 7 7 8 9 10 9 9 9 11 13 15 19 20 22 24 25 28 32 34 37
29 27 25 22 20 18 18 20 12 11 13 16 14 15 17 18 19 20 21 21 19 19 16 11 11 11 10 9 6 1 3 5 7 10 11 13 16 19 20 22 23 25 28 31 34 36 35
30 29 26 25 23 22 18 14 9 11 11 14 14 13 14 14 15 16 16 16 18 17 16 15 14 10 5 4 5 4 2 1 4 8 12 15 18 20 22 24 26 29 32 34 38 39 39
32 31 28 24 22 19 15 13 11 13 16 13 13 11 9 14 15 15 12 11 13 13 12 13 12 11 11 9 6 5 7 9 10 11 11 11 12 14 17 20 22 23 25 27 28 29 33
35 32 30 25 21 17 18 16 16 16 15 14 14 17 13 11 11 13 16 18 18 19 19 16 12 9 9 8 6 6 7 8 10 14 17 19 20 23 23 27 28 28 27 31 34 34 38
35 32 29 27 24 22 21 22 21 18 17 15 17 19 19 20 20 17 11 12 16 18 18 20 23 26 25 17 15 14 12 14 14 14 17 18 21 24 22 30 36 31 29 35 38 38 40
37 35 30 27 25 26 22 21 22 22 21 20 19 22 23 24 24 24 23 22 21 22 21 22 22 22 25 26 26 26 23 22 19 21 20 21 24 27 29 31 35 31 32 34 36 38 42
40 38 37 34 29 27 25 24 23 25 27 26 25 24 25 26 27 28 29 29 28 29 28 25 26 26 29 31 34 34 36 33 31 31 29 26 28 33 37 35 40 38 37 39 42 41 42
43 43 41 40 37 33 32 32 31 31 31 30 32 33 31 31 32 34 35 32 31 33 35 34 33 31 30 31 33 36 38 40 43 42 41 40 41 42 41 45 47 47 38 41 44 47 44
50 48 48 46 44 41 40 39 39 37 36 38 38 38 40 40 38 38 39 41 41 40 38 38 39 39 38 40 41 39 37 38 41 43 45 46 48 51 52 56 56 53 54 56 57 56 55
58 54 54 53 50 48 47 47 46 45 44 43 44 46 46 47 46 44 44 46 46 45 44 47 48 45 46 47 46 45 46 46 45 45 47 48 51 54 56 60 61 61 63 63 62 62 60
64 62 60 58 57 56 54 53 54 53 53 53 52 52 53 53 53 52 52 51 50 50 52 53 52 52 54 51 52 53 51 51 48 48 50 53 55 56 59 61 62 62 65 68 67 65 64
Wind_Direction
15 10 9 7 6 7 10 9 6 8 9 12 14 9 5 8 12 13 14 16 21 30 105 156 151 144 148 163 167 172 174 183 184 179 188 186 181 191 199 198 199 202 201 204 206 202 202
13 10 9 8 5 9 10 10 7 9 10 11 17 12 9 13 16 20 22 21 26 38 40 189 176 153 152 152 160 160 171 176 187 190 179 175 173 185 193 197 197 199 197 202 204 197 197
11 10 7 8 6 9 10 10 9 10 11 11 17 17 16 17 19 26 30 23 31 52 58 64 186 161 143 150 158 161 165 168 194 184 169 170 170 178 189 192 194 195 195 199 199 194 195
11 8 6 7 7 7 9 12 12 10 12 12 16 19 20 22 22 29 27 27 39 59 61 64 120 141 136 154 164 162 154 147 172 170 166 170 168 173 186 188 190 190 192 196 196 192 194
10 7 6 6 7 5 8 13 13 11 13 13 16 20 23 26 25 29 32 31 36 57 57 49 61 147 122 138 155 154 142 132 161 160 168 168 165 172 182 186 186 188 191 194 194 194 194
7 6 5 6 7 6 7 10 15 14 13 14 15 22 26 29 31 34 35 34 45 64 61 76 68 121 126 138 134 144 158 150 160 161 166 163 163 171 179 183 185 187 189 193 193 195 197
3 3 4 4 6 6 6 10 15 16 14 15 16 21 25 31 34 37 38 39 43 49 52 76 73 116 124 130 122 125 131 150 159 165 160 160 161 171 176 181 183 187 188 188 194 196 198
358 359 2 2 3 6 5 8 13 18 17 17 17 21 25 30 35 37 40 43 50 53 62 70 86 106 110 114 122 125 139 147 160 161 152 155 158 169 174 181 184 186 185 187 191 198 202
351 354 358 0 1 6 5 6 11 18 20 19 20 21 26 30 38 44 49 48 50 53 58 74 89 103 115 111 115 126 135 140 158 143 144 145 158 166 172 179 183 186 186 191 193 199 207
342 349 353 358 1 4 6 6 9 16 21 23 22 22 26 30 37 46 53 54 54 53 58 75 79 91 102 112 116 115 133 137 126 135 131 140 154 163 168 175 182 183 187 195 199 205 210
335 341 347 355 2 5 5 6 7 9 19 25 27 24 27 31 36 45 55 58 63 62 67 75 76 87 94 100 114 120 123 121 130 126 129 134 146 155 162 172 177 185 190 198 206 215 221
330 335 339 348 359 4 5 5 4 11 12 20 28 29 28 33 37 45 56 63 69 72 74 73 79 97 92 107 109 112 121 124 131 126 119 126 136 144 155 163 174 182 190 202 214 228 240
325 329 332 341 352 358 3 7 3 11 12 19 22 33 33 33 38 44 54 66 73 74 76 74 77 86 103 112 117 117 122 129 126 122 121 121 128 136 144 149 157 176 186 208 221 235 253
315 320 329 335 345 353 358 4 4 15 17 25 28 36 38 38 36 43 50 59 75 83 76 78 85 84 93 116 124 131 135 129 128 123 126 132 137 134 150 162 174 192 215 232 245 258 261
304 312 325 331 341 347 355 359 4 19 23 30 35 40 41 44 40 36 49 50 61 76 87 82 84 93 97 100 119 129 143 141 141 143 149 158 168 186 202 224 225 228 237 246 255 263 264
299 305 317 324 337 343 349 0 355 15 20 30 38 38 44 46 47 42 43 44 55 62 71 83 92 96 98 106 105 100 132 153 157 162 162 170 172 184 195 204 215 226 237 244 253 259 264
295 300 308 315 325 333 340 350 352 7 21 27 38 44 42 45 50 46 48 43 49 54 58 64 74 91 108 119 125 126 126 121 120 174 185 190 196 201 204 211 221 230 236 244 251 255 261
291 294 298 303 314 321 326 336 338 356 28 31 33 35 35 42 40 47 44 48 56 52 53 52 56 58 70 98 125 142 153 168 182 200 210 221 226 232 234 240 244 249 257 262 264 266 269
292 294 297 298 301 306 311 322 318 340 7 12 17 28 28 35 43 37 38 37 42 51 53 58 51 42 50 59 66 94 183 201 214 214 218 225 230 233 241 248 253 258 263 265 268 269 272
290 292 295 301 300 295 294 304 286 300 323 334 349 349 6 15 21 29 37 39 35 32 41 44 43 44 36 10 2 353 345 222 225 238 248 251 253 256 259 259 259 260 262 266 269 272 276
283 286 290 294 296 292 281 272 253 268 280 302 315 331 346 349 346 345 3 16 24 31 35 27 27 35 28 11 347 297 281 285 286 282 272 258 252 256 259 260 260 261 265 271 278 278 279
279 285 288 288 287 286 275 263 245 262 282 302 300 301 312 322 341 347 349 352 354 353 355 354 357 2 358 352 346 327 315 306 291 279 270 272 275 274 274 270 264 265 274 278 278 280 281
274 276 280 283 279 279 281 272 269 265 269 275 290 297 299 308 315 314 314 315 319 328 334 337 337 335 333 330 322 319 311 305 305 296 293 290 285 279 274 274 277 279 274 274 275 277 276
268 270 269 272 278 277 270 260 258 259 264 273 276 285 292 297 306 307 305 308 307 308 314 314 314 311 313 314 312 308 303 298 289 282 283 285 285 288 293 292 290 287 277 275 276 278 279
267 272 272 268 270 271 268 265 264 264 265 266 265 270 279 285 292 297 300 301 304 303 304 304 305 306 305 306 305 302 305 299 295 289 285 278 278 282 284 286 287 286 287 286 282 281 280
264 267 269 269 269 268 265 264 267 269 269 268 273 277 278 280 283 289 291 290 289 290 291 294 297 295 294 298 300 299 299 298 295 297 297 294 292 285 283 282 284 288 291 283 284 282 284
261 263 264 266 267 268 270 270 268 267 268 273 273 274 277 278 275 275 278 281 285 286 288 291 290 290 290 291 294 296 296 295 297 295 293 292 290 290 292 291 289 293 292 292 291 292 289
259 260 262 263 262 264 267 270 270 271 271 272 276 278 278 282 283 280 277 279 282 282 284 285 287 289 289 288 290 290 290 293 292 293 291 290 292 293 290 289 293 292 291 288 288 287 286
256 257 259 261 264 265 265 266 269 271 272 274 276 277 279 279 280 279 279 279 280 282 284 286 289 291 292 293 292 290 292 290 289 292 291 288 287 288 286 288 288 289 287 287 286 285 285